This is the latest recevied weather packets stored in our database for station/object SV4FHR-2. If no packets are shown the sender has not sent any weather packets the latest 10 day(s).
| Time | Temp. | Humidity | Pressure | Rain* | Wind** | Luminosity | Snow |
|---|---|---|---|---|---|---|---|
| 1777748445 | 11.11° C | 69% | 1017.5 hPa | 0 mm | - | - | - |
| 1777748145 | 11.67° C | 67% | 1017.8 hPa | 0 mm | - | - | - |
| 1777747844 | 12.22° C | 10% | 1017.5 hPa | 0 mm | - | - | - |
| 1777747544 | 12.22° C | 64% | 1017.7 hPa | 0 mm | - | - | - |
| 1777747244 | 12.22° C | 64% | 1017.7 hPa | 0 mm | - | - | - |
| 1777746944 | 12.22° C | 64% | 1017.4 hPa | 0 mm | - | - | - |
| 1777746644 | 11.67° C | 64% | 1017.1 hPa | 0 mm | - | - | - |
| 1777746343 | 11.67° C | 66% | 1016.9 hPa | 0 mm | - | - | - |
| 1777746045 | 11.67° C | 66% | 1017 hPa | 0 mm | - | - | - |
| 1777745745 | 11.67° C | 66% | 1016.7 hPa | 0 mm | - | - | - |
| 1777745445 | 12.22° C | 61% | 1016.5 hPa | 0 mm | - | - | - |
| 1777745145 | 12.22° C | 61% | 1016.5 hPa | 0 mm | - | - | - |
| 1777744843 | 12.22° C | 60% | 1016.2 hPa | 0 mm | - | - | - |
| 1777744543 | 12.22° C | 61% | 1016.1 hPa | 0 mm | - | - | - |
| 1777744243 | 12.22° C | 61% | 1016 hPa | 0 mm | - | - | - |
| 1777743943 | 12.22° C | 61% | 1016.2 hPa | 0 mm | - | - | - |
| 1777743645 | 12.22° C | 61% | 1015.8 hPa | 0 mm | - | - | - |
| 1777743345 | 12.78° C | 61% | 1016 hPa | 0 mm | - | - | - |
| 1777743045 | 12.78° C | 60% | 1016 hPa | 0 mm | - | - | - |
| 1777742745 | 12.78° C | 59% | 1015.9 hPa | 0 mm | - | - | - |
| 1777742444 | 12.78° C | 60% | 1015.8 hPa | 0 mm | - | - | - |
| 1777742144 | 12.78° C | 61% | 1016 hPa | 0 mm | - | - | - |
| 1777741844 | 13.33° C | 59% | 1015.9 hPa | 0 mm | - | - | - |
| 1777741544 | 13.33° C | 59% | 1015.9 hPa | 0 mm | - | - | - |
| 1777741244 | 13.33° C | 60% | 1015.8 hPa | 0 mm | - | - | - |
* Rain latest hour (hover to see other rain measurements)
** Current wind speed in m/s (hover to see current wind gust speed)